Iowa City, IA

4:41 AM CDT on June 24, 2017 (GMT -0500)
Iowa City Municipal

Weather History for KIOW - March, 2014

Change the Weather History Date:

Monday, March 3, 2014

  Actual Average Record
Temperature  
Mean Temperature 1 °F 32 °F  
Max Temperature 12 °F 41 °F 74 °F (1983)
Min Temperature -10 °F 24 °F -10 °F (2014)
Degree Days  
Heating Degree Days 64 33  
Month to date heating degree days 181 100  
Since 1 July heating degree days 5974 5050  
Cooling Degree Days 0 0  
Month to date cooling degree days 0 0  
Year to date cooling degree days 0 0  
Moisture  
Dew Point -8 °F    
Average Humidity 61    
Maximum Humidity 72    
Minimum Humidity 50    
Precipitation  
Precipitation T in 0.08 in 0.84 in (1985)
Month to date precipitation 0.12 0.22  
Year to date precipitation 1.95 2.38  
Sea Level Pressure  
Sea Level Pressure 30.54 in    
Wind  
Wind Speed 6 mph (SE)    
Max Wind Speed 14 mph    
Max Gust Speed 17 mph    
Visibility 10 miles    
Events      
T = Trace of Precipitation, MM = Missing Value Source: NWS Daily Summary

Daily Weather History Graph

Daily Weather History Graph

Search for Another Location

Airport or City:

Trip Planner

Search our weather history database for the weather conditions in past years. The results will help you decide how hot, cold, wet, or windy it might be!

Date:

Astronomy

Mar. 03, 2014 Rise Set
Actual Time 6:37 AM CST 5:59 PM CST
Civil Twilight 6:09 AM CST 6:26 PM CST
Nautical Twilight 5:37 AM CST 6:59 PM CST
Astronomical Twilight 5:05 AM CST 7:31 PM CST
Moon 7:43 AM CST (3/3) 9:05 PM CST (3/3)
Length of Visible Light 12h 16m
Length of Day
11h 21m
Waxing Crescent, 8% of the Moon is Illuminated
Mar 3
Waxing Crescent
Mar 8
First Quarter
Mar 16
Full
Mar 23
Last Quarter
Mar 30
New

Hourly Weather History & Observations

Time (CST) Temp. Windchill Dew Point Humidity Pressure Visibility Wind Dir Wind Speed Gust Speed Precip Events Conditions
12:52 AM -5.1 °F -22.5 °F -15.0 °F 62% 30.59 in 10.0 mi NNW 10.4 mph - N/A   Clear
1:52 AM -6.0 °F -20.1 °F -15.0 °F 65% 30.60 in 10.0 mi NW 6.9 mph - N/A   Clear
2:52 AM -7.1 °F -21.4 °F -15.0 °F 68% 30.58 in 10.0 mi NNW 6.9 mph - N/A   Clear
3:52 AM -8.0 °F -21.0 °F -15.0 °F 71% 30.58 in 10.0 mi NW 5.8 mph - N/A   Clear
4:52 AM -8.0 °F -19.2 °F -15.0 °F 71% 30.59 in 10.0 mi NNW 4.6 mph - N/A   Clear
5:52 AM -9.9 °F -21.5 °F -16.1 °F 74% 30.60 in 10.0 mi WNW 4.6 mph - N/A   Clear
6:52 AM -9.9 °F -21.5 °F -16.1 °F 74% 30.60 in 10.0 mi WNW 4.6 mph - N/A   Clear
7:52 AM -7.1 °F -18.1 °F -14.1 °F 72% 30.61 in 10.0 mi West 4.6 mph - N/A   Clear
8:52 AM -0.9 °F -11.0 °F -9.9 °F 66% 30.61 in 10.0 mi North 4.6 mph - N/A   Clear
9:52 AM 3.9 °F -6.9 °F -9.9 °F 53% 30.61 in 10.0 mi East 5.8 mph - N/A   Clear
10:52 AM 3.0 °F -8.0 °F -9.9 °F 55% 30.62 in 10.0 mi SE 5.8 mph - N/A   Clear
11:52 AM 3.9 °F -5.3 °F -7.1 °F 60% 30.60 in 10.0 mi ESE 4.6 mph - N/A   Clear
12:52 PM 7.0 °F - -5.1 °F 58% 30.58 in 10.0 mi Calm Calm - N/A   Clear
1:52 PM 9.0 °F 0.6 °F -4.0 °F 56% 30.56 in 10.0 mi SSW 4.6 mph - N/A   Clear
2:52 PM 10.9 °F 1.4 °F -5.1 °F 49% 30.52 in 10.0 mi South 5.8 mph - N/A   Clear
3:52 PM 10.9 °F 2.9 °F -2.9 °F 54% 30.51 in 10.0 mi WSW 4.6 mph - N/A   Clear
4:52 PM 10.9 °F 1.4 °F -2.0 °F 56% 30.50 in 10.0 mi ESE 5.8 mph - N/A   Clear
5:52 PM 10.9 °F 1.4 °F -2.9 °F 54% 30.47 in 10.0 mi ESE 5.8 mph - N/A   Clear
6:52 PM 10.0 °F -1.9 °F -2.0 °F 58% 30.45 in 10.0 mi ESE 8.1 mph - N/A   Clear
7:52 PM 9.0 °F -2.2 °F -0.9 °F 64% 30.43 in 10.0 mi SE 6.9 mph - N/A   Clear
8:52 PM 10.0 °F -3.7 °F -0.9 °F 61% 30.40 in 10.0 mi SE 10.4 mph - N/A   Clear
9:52 PM 10.0 °F 0.4 °F -0.9 °F 61% 30.43 in 10.0 mi SSE 5.8 mph - N/A   Mostly Cloudy
10:52 PM 10.9 °F 2.9 °F -0.0 °F 61% 30.42 in 10.0 mi SE 4.6 mph - N/A   Overcast
11:52 PM 10.9 °F -1.8 °F -0.0 °F 61% 30.38 in 9.0 mi SE 9.2 mph - 0.00 in   Overcast